Location: ??????
(41.3747°N, 22.5491°E)
Time: 06:05:07
(UTC+00:00)

CSL-04 Debris - Pass Details

Date: 01 December 2020
Orbit: 826 x 848 km, 98.9° (Epoch: 20 January)

Event Time Altitude Azimuth Distance (km) Brightness Sun altitude
Exits shadow 17:27:34 57° 10° (N) 998 4.4 -26.9°
Drops below altitude 10° 17:31:58 10° 350° (N) 2,479 6.7 -27.7°
Sets 17:34:21 0° 349° (NNW) 3,416 7.4 -28.1°
